contact:dominique.lefevre@mio.osupytheas.fr, maurice.libes@osupytheas.fr, didier.mallarino@osupytheas.fr
Project:EMSO http://www.emso-fr.org/EMSO-France
Depth: 2436.0 m
Title:EMSO Ligure Ouest : Data MII capteur CSTAR
DateTime,Latitude,Longitude,Instrument_Serial,Reference_Counts,Signal_Counts,Corrected_Signal_raw_counts,Calculated_Beam_c_inverse_meters,Internal_thermistor_counts
DateTime,Latitude,Longitude,Instrument_Serial,Reference_Counts,Signal_Counts,Corrected_Signal_raw_counts,Calculated_Beam_c_inverse_meters,Internal_thermistor_counts
2021-07-09T00:00:40,42.805,6.029,CST-1368DR,5406,7515,14915,0.184,550
2021-07-09T00:03:41,42.805,6.029,CST-1368DR,5406,7514,14912,0.185,551
2021-07-09T00:06:43,42.805,6.029,CST-1368DR,5406,7516,14917,0.183,551
2021-07-09T00:09:44,42.805,6.029,CST-1368DR,5406,7515,14915,0.184,551
2021-07-09T00:12:46,42.805,6.029,CST-1368DR,5406,7515,14915,0.184,551
2021-07-09T00:15:47,42.805,6.029,CST-1368DR,5406,7515,14914,0.184,551
2021-07-09T00:18:49,42.805,6.029,CST-1368DR,5406,7516,14917,0.183,551
2021-07-09T00:21:51,42.805,6.029,CST-1368DR,5406,7516,14917,0.183,551
2021-07-09T00:24:52,42.805,6.029,CST-1368DR,5406,7512,14908,0.186,551
2021-07-09T00:27:54,42.805,6.029,CST-1368DR,5406,7515,14915,0.184,551
2021-07-09T00:30:55,42.805,6.029,CST-1368DR,5406,7514,14912,0.185,551
2021-07-09T00:33:57,42.805,6.029,CST-1368DR,5406,7516,14916,0.183,551
2021-07-09T00:36:59,42.805,6.029,CST-1368DR,5406,7515,14915,0.184,551
2021-07-09T00:40:00,42.805,6.029,CST-1368DR,5406,7515,14915,0.184,551
2021-07-09T00:43:02,42.805,6.029,CST-1368DR,5406,7510,14905,0.186,551
2021-07-09T00:46:03,42.805,6.029,CST-1368DR,5406,7515,14915,0.184,551
2021-07-09T00:49:05,42.805,6.029,CST-1368DR,5406,7516,14916,0.183,551
2021-07-09T00:52:06,42.805,6.029,CST-1368DR,5406,7516,14917,0.183,551
2021-07-09T00:55:08,42.805,6.029,CST-1368DR,5406,7515,14914,0.184,551
2021-07-09T00:58:10,42.805,6.029,CST-1368DR,5406,7515,14915,0.184,551
2021-07-09T01:01:11,42.805,6.029,CST-1368DR,5406,7515,14915,0.184,551
2021-07-09T01:04:13,42.805,6.029,CST-1368DR,5406,7514,14913,0.184,551
2021-07-09T01:07:14,42.805,6.029,CST-1368DR,5406,7515,14914,0.184,551
2021-07-09T01:10:16,42.805,6.029,CST-1368DR,5406,7514,14913,0.184,551
2021-07-09T01:13:18,42.805,6.029,CST-1368DR,5406,7515,14915,0.184,551
2021-07-09T01:16:19,42.805,6.029,CST-1368DR,5406,7515,14914,0.184,551
2021-07-09T01:19:21,42.805,6.029,CST-1368DR,5406,7515,14914,0.184,551
2021-07-09T01:22:22,42.805,6.029,CST-1368DR,5406,7515,14914,0.184,551
2021-07-09T01:25:24,42.805,6.029,CST-1368DR,5406,7506,14897,0.189,551
2021-07-09T01:28:25,42.805,6.029,CST-1368DR,5406,7513,14911,0.185,551
2021-07-09T01:31:27,42.805,6.029,CST-1368DR,5406,7513,14911,0.185,551
2021-07-09T01:34:29,42.805,6.029,CST-1368DR,5406,7515,14915,0.184,551
2021-07-09T01:37:30,42.805,6.029,CST-1368DR,5406,7515,14915,0.184,551
2021-07-09T01:40:32,42.805,6.029,CST-1368DR,5406,7515,14915,0.184,551
2021-07-09T01:43:33,42.805,6.029,CST-1368DR,5406,7516,14916,0.183,551
2021-07-09T01:46:35,42.805,6.029,CST-1368DR,5406,7514,14913,0.184,551
2021-07-09T01:49:36,42.805,6.029,CST-1368DR,5406,7515,14914,0.184,551
2021-07-09T01:52:38,42.805,6.029,CST-1368DR,5406,7515,14915,0.184,551
2021-07-09T01:55:40,42.805,6.029,CST-1368DR,5406,7515,14915,0.184,551
2021-07-09T01:58:41,42.805,6.029,CST-1368DR,5406,7516,14917,0.183,551
2021-07-09T02:01:43,42.805,6.029,CST-1368DR,5406,7514,14912,0.185,551
2021-07-09T02:04:44,42.805,6.029,CST-1368DR,5406,7515,14915,0.184,551
2021-07-09T02:07:46,42.805,6.029,CST-1368DR,5406,7515,14915,0.184,551
2021-07-09T02:10:48,42.805,6.029,CST-1368DR,5406,7515,14914,0.184,551
2021-07-09T02:13:49,42.805,6.029,CST-1368DR,5406,7515,14915,0.184,551
2021-07-09T02:16:51,42.805,6.029,CST-1368DR,5406,7516,14916,0.183,551
2021-07-09T02:19:52,42.805,6.029,CST-1368DR,5406,7516,14916,0.183,551
2021-07-09T02:22:54,42.805,6.029,CST-1368DR,5406,7515,14914,0.184,551
2021-07-09T02:25:55,42.805,6.029,CST-1368DR,5406,7514,14913,0.184,551
2021-07-09T02:28:57,42.805,6.029,CST-1368DR,5406,7515,14914,0.184,551
2021-07-09T02:31:59,42.805,6.029,CST-1368DR,5406,7515,14915,0.184,551
2021-07-09T02:35:00,42.805,6.029,CST-1368DR,5406,7516,14916,0.183,551
2021-07-09T02:38:02,42.805,6.029,CST-1368DR,5406,7514,14913,0.184,551
2021-07-09T02:41:03,42.805,6.029,CST-1368DR,5406,7515,14914,0.184,551
2021-07-09T02:44:05,42.805,6.029,CST-1368DR,5406,7515,14915,0.184,551
2021-07-09T02:47:07,42.805,6.029,CST-1368DR,5406,7515,14915,0.184,551
2021-07-09T02:50:08,42.805,6.029,CST-1368DR,5406,7514,14913,0.184,551
2021-07-09T02:53:10,42.805,6.029,CST-1368DR,5406,7514,14913,0.184,551
2021-07-09T02:56:11,42.805,6.029,CST-1368DR,5406,7511,14907,0.186,551
2021-07-09T02:59:13,42.805,6.029,CST-1368DR,5406,7514,14912,0.185,551
2021-07-09T03:02:14,42.805,6.029,CST-1368DR,5406,7515,14914,0.184,551
2021-07-09T03:05:16,42.805,6.029,CST-1368DR,5406,7512,14908,0.186,551
2021-07-09T03:08:18,42.805,6.029,CST-1368DR,5406,7513,14910,0.185,551
2021-07-09T03:11:19,42.805,6.029,CST-1368DR,5406,7515,14914,0.184,551
2021-07-09T03:14:21,42.805,6.029,CST-1368DR,5406,7515,14914,0.184,551
2021-07-09T03:17:22,42.805,6.029,CST-1368DR,5406,7514,14913,0.184,551
2021-07-09T03:20:24,42.805,6.029,CST-1368DR,5406,7514,14913,0.184,551
2021-07-09T03:23:25,42.805,6.029,CST-1368DR,5406,7515,14914,0.184,551
2021-07-09T03:26:27,42.805,6.029,CST-1368DR,5406,7514,14913,0.184,551
2021-07-09T03:29:29,42.805,6.029,CST-1368DR,5406,7515,14914,0.184,551
2021-07-09T03:32:30,42.805,6.029,CST-1368DR,5406,7515,14915,0.184,551
2021-07-09T03:35:32,42.805,6.029,CST-1368DR,5406,7515,14914,0.184,551
2021-07-09T03:38:33,42.805,6.029,CST-1368DR,5406,7515,14915,0.184,551
2021-07-09T03:41:35,42.805,6.029,CST-1368DR,5406,7515,14915,0.184,551
2021-07-09T03:44:37,42.805,6.029,CST-1368DR,5406,7515,14914,0.184,551
2021-07-09T03:47:38,42.805,6.029,CST-1368DR,5406,7515,14915,0.184,551
2021-07-09T03:50:40,42.805,6.029,CST-1368DR,5406,7514,14912,0.185,551
2021-07-09T03:53:41,42.805,6.029,CST-1368DR,5406,7515,14915,0.184,551
2021-07-09T03:56:43,42.805,6.029,CST-1368DR,5406,7516,14916,0.183,551
2021-07-09T03:59:44,42.805,6.029,CST-1368DR,5406,7514,14912,0.185,551
2021-07-09T04:02:46,42.805,6.029,CST-1368DR,5406,7515,14914,0.184,551
2021-07-09T04:05:48,42.805,6.029,CST-1368DR,5406,7515,14914,0.184,551
2021-07-09T04:08:49,42.805,6.029,CST-1368DR,5406,7511,14906,0.186,551
2021-07-09T04:11:51,42.805,6.029,CST-1368DR,5406,7513,14910,0.185,551
2021-07-09T04:14:52,42.805,6.029,CST-1368DR,5406,7515,14914,0.184,551
2021-07-09T04:17:54,42.805,6.029,CST-1368DR,5406,7514,14912,0.185,551
2021-07-09T04:20:55,42.805,6.029,CST-1368DR,5406,7515,14914,0.184,551
2021-07-09T04:23:57,42.805,6.029,CST-1368DR,5406,7514,14913,0.184,551
2021-07-09T04:26:59,42.805,6.029,CST-1368DR,5406,7515,14914,0.184,551
2021-07-09T04:30:00,42.805,6.029,CST-1368DR,5406,7513,14911,0.185,551
2021-07-09T04:33:02,42.805,6.029,CST-1368DR,5406,7514,14912,0.185,551
2021-07-09T04:36:03,42.805,6.029,CST-1368DR,5406,7515,14914,0.184,551
2021-07-09T04:39:05,42.805,6.029,CST-1368DR,5406,7514,14913,0.184,551
2021-07-09T04:42:07,42.805,6.029,CST-1368DR,5406,7511,14907,0.186,551
2021-07-09T04:45:08,42.805,6.029,CST-1368DR,5406,7514,14913,0.184,551
2021-07-09T04:48:10,42.805,6.029,CST-1368DR,5406,7514,14913,0.184,551
2021-07-09T04:51:11,42.805,6.029,CST-1368DR,5406,7513,14910,0.185,551
2021-07-09T04:54:13,42.805,6.029,CST-1368DR,5406,7514,14912,0.185,551
2021-07-09T04:57:14,42.805,6.029,CST-1368DR,5406,7515,14914,0.184,551
2021-07-09T05:00:16,42.805,6.029,CST-1368DR,5406,7514,14913,0.184,551
2021-07-09T05:03:18,42.805,6.029,CST-1368DR,5406,7513,14911,0.185,551
2021-07-09T05:06:19,42.805,6.029,CST-1368DR,5406,7514,14912,0.185,551
2021-07-09T05:09:21,42.805,6.029,CST-1368DR,5406,7514,14912,0.185,551
2021-07-09T05:12:22,42.805,6.029,CST-1368DR,5406,7513,14910,0.185,551
2021-07-09T05:15:24,42.805,6.029,CST-1368DR,5406,7514,14912,0.185,551
2021-07-09T05:18:25,42.805,6.029,CST-1368DR,5406,7513,14911,0.185,551
2021-07-09T05:21:27,42.805,6.029,CST-1368DR,5406,7514,14912,0.185,551
2021-07-09T05:24:29,42.805,6.029,CST-1368DR,5406,7513,14911,0.185,551
2021-07-09T05:27:30,42.805,6.029,CST-1368DR,5406,7514,14912,0.185,551
2021-07-09T05:30:32,42.805,6.029,CST-1368DR,5405,7514,14914,0.184,551
2021-07-09T05:33:33,42.805,6.029,CST-1368DR,5406,7514,14913,0.184,551
2021-07-09T05:36:35,42.805,6.029,CST-1368DR,5405,7514,14914,0.184,551
2021-07-09T05:39:37,42.805,6.029,CST-1368DR,5405,7513,14913,0.184,551
2021-07-09T05:42:38,42.805,6.029,CST-1368DR,5405,7513,14913,0.184,551
2021-07-09T05:45:40,42.805,6.029,CST-1368DR,5406,7514,14912,0.185,551
2021-07-09T05:48:41,42.805,6.029,CST-1368DR,5405,7514,14914,0.184,551
2021-07-09T05:51:43,42.805,6.029,CST-1368DR,5405,7512,14910,0.185,550
2021-07-09T05:54:44,42.805,6.029,CST-1368DR,5406,7513,14911,0.185,551
2021-07-09T05:57:46,42.805,6.029,CST-1368DR,5405,7514,14914,0.184,551
2021-07-09T06:00:48,42.805,6.029,CST-1368DR,5405,7514,14914,0.184,551
2021-07-09T06:03:49,42.805,6.029,CST-1368DR,5405,7513,14912,0.185,551
2021-07-09T06:06:51,42.805,6.029,CST-1368DR,5405,7513,14913,0.184,551
2021-07-09T06:09:52,42.805,6.029,CST-1368DR,5405,7515,14916,0.183,551
2021-07-09T06:12:54,42.805,6.029,CST-1368DR,5405,7513,14913,0.184,551
2021-07-09T06:15:56,42.805,6.029,CST-1368DR,5406,7514,14913,0.184,551
2021-07-09T06:18:57,42.805,6.029,CST-1368DR,5405,7515,14917,0.183,551
2021-07-09T06:21:59,42.805,6.029,CST-1368DR,5405,7514,14914,0.184,551
2021-07-09T06:25:00,42.805,6.029,CST-1368DR,5405,7514,14915,0.184,551
2021-07-09T06:28:02,42.805,6.029,CST-1368DR,5405,7514,14915,0.184,551
2021-07-09T06:31:03,42.805,6.029,CST-1368DR,5405,7510,14907,0.186,551
2021-07-09T06:34:05,42.805,6.029,CST-1368DR,5405,7514,14915,0.184,551
2021-07-09T06:37:07,42.805,6.029,CST-1368DR,5405,7510,14906,0.186,551
2021-07-09T06:40:08,42.805,6.029,CST-1368DR,5405,7514,14915,0.184,551
2021-07-09T06:43:10,42.805,6.029,CST-1368DR,5405,7511,14908,0.186,551
2021-07-09T06:46:11,42.805,6.029,CST-1368DR,5405,7514,14914,0.184,551
2021-07-09T06:49:13,42.805,6.029,CST-1368DR,5405,7513,14914,0.184,551
2021-07-09T06:52:14,42.805,6.029,CST-1368DR,5405,7513,14914,0.184,551
2021-07-09T06:55:16,42.805,6.029,CST-1368DR,5405,7511,14909,0.185,550
2021-07-09T06:58:18,42.805,6.029,CST-1368DR,5405,7514,14915,0.184,551
2021-07-09T07:01:19,42.805,6.029,CST-1368DR,5405,7514,14914,0.184,551
2021-07-09T07:04:21,42.805,6.029,CST-1368DR,5405,7514,14914,0.184,551
2021-07-09T07:07:22,42.805,6.029,CST-1368DR,5405,7513,14912,0.185,551
2021-07-09T07:10:24,42.805,6.029,CST-1368DR,5405,7513,14912,0.185,551
2021-07-09T07:13:26,42.805,6.029,CST-1368DR,5405,7513,14912,0.185,551
2021-07-09T07:16:27,42.805,6.029,CST-1368DR,5405,7514,14915,0.184,551
2021-07-09T07:19:29,42.805,6.029,CST-1368DR,5405,7512,14910,0.185,551
2021-07-09T07:22:30,42.805,6.029,CST-1368DR,5405,7513,14913,0.184,551
2021-07-09T07:25:32,42.805,6.029,CST-1368DR,5405,7514,14915,0.184,551
2021-07-09T07:28:33,42.805,6.029,CST-1368DR,5405,7513,14913,0.184,551
2021-07-09T07:31:35,42.805,6.029,CST-1368DR,5405,7514,14914,0.184,551
2021-07-09T07:34:37,42.805,6.029,CST-1368DR,5405,7513,14913,0.184,551
2021-07-09T07:37:38,42.805,6.029,CST-1368DR,5405,7513,14913,0.184,551
2021-07-09T07:40:40,42.805,6.029,CST-1368DR,5405,7513,14913,0.184,551
2021-07-09T07:43:41,42.805,6.029,CST-1368DR,5405,7513,14914,0.184,551
2021-07-09T07:46:43,42.805,6.029,CST-1368DR,5405,7513,14914,0.184,551
2021-07-09T07:49:45,42.805,6.029,CST-1368DR,5405,7514,14914,0.184,550
2021-07-09T07:52:46,42.805,6.029,CST-1368DR,5405,7514,14915,0.184,551
2021-07-09T07:55:48,42.805,6.029,CST-1368DR,5405,7514,14914,0.184,551
2021-07-09T07:58:49,42.805,6.029,CST-1368DR,5405,7514,14915,0.184,551
2021-07-09T08:01:51,42.805,6.029,CST-1368DR,5405,7514,14915,0.184,551
2021-07-09T08:04:52,42.805,6.029,CST-1368DR,5405,7514,14915,0.184,551
2021-07-09T08:07:54,42.805,6.029,CST-1368DR,5405,7513,14912,0.185,551
2021-07-09T08:10:56,42.805,6.029,CST-1368DR,5405,7514,14914,0.184,551
2021-07-09T08:13:57,42.805,6.029,CST-1368DR,5405,7512,14910,0.185,551
2021-07-09T08:16:59,42.805,6.029,CST-1368DR,5405,7514,14915,0.184,551
2021-07-09T08:20:00,42.805,6.029,CST-1368DR,5405,7514,14915,0.184,551
2021-07-09T08:23:02,42.805,6.029,CST-1368DR,5405,7514,14914,0.184,551
2021-07-09T08:26:03,42.805,6.029,CST-1368DR,5405,7514,14915,0.184,551
2021-07-09T08:29:05,42.805,6.029,CST-1368DR,5405,7514,14914,0.184,551
2021-07-09T08:32:07,42.805,6.029,CST-1368DR,5405,7514,14914,0.184,551
2021-07-09T08:35:08,42.805,6.029,CST-1368DR,5405,7511,14910,0.185,551
2021-07-09T08:38:10,42.805,6.029,CST-1368DR,5405,7514,14915,0.184,551
2021-07-09T08:41:11,42.805,6.029,CST-1368DR,5405,7514,14914,0.184,551
2021-07-09T08:44:13,42.805,6.029,CST-1368DR,5405,7514,14914,0.184,551
2021-07-09T08:47:15,42.805,6.029,CST-1368DR,5405,7514,14916,0.183,551
2021-07-09T08:50:16,42.805,6.029,CST-1368DR,5405,7512,14911,0.185,551
2021-07-09T08:53:18,42.805,6.029,CST-1368DR,5405,7513,14913,0.184,551
2021-07-09T08:56:19,42.805,6.029,CST-1368DR,5405,7513,14913,0.184,551
2021-07-09T08:59:21,42.805,6.029,CST-1368DR,5405,7511,14909,0.185,551
2021-07-09T09:02:22,42.805,6.029,CST-1368DR,5405,7513,14912,0.185,550
2021-07-09T09:05:24,42.805,6.029,CST-1368DR,5405,7514,14914,0.184,551
2021-07-09T09:08:26,42.805,6.029,CST-1368DR,5405,7514,14915,0.184,550
2021-07-09T09:11:27,42.805,6.029,CST-1368DR,5405,7513,14912,0.185,551
2021-07-09T09:14:29,42.805,6.029,CST-1368DR,5405,7514,14914,0.184,551
2021-07-09T09:17:30,42.805,6.029,CST-1368DR,5405,7513,14912,0.185,551
2021-07-09T09:20:32,42.805,6.029,CST-1368DR,5405,7514,14914,0.184,551
2021-07-09T09:23:33,42.805,6.029,CST-1368DR,5405,7513,14914,0.184,551
2021-07-09T09:26:35,42.805,6.029,CST-1368DR,5405,7513,14913,0.184,551
2021-07-09T09:29:37,42.805,6.029,CST-1368DR,5405,7513,14913,0.184,551
2021-07-09T09:32:38,42.805,6.029,CST-1368DR,5405,7511,14909,0.185,551
2021-07-09T09:35:40,42.805,6.029,CST-1368DR,5405,7513,14913,0.184,551
2021-07-09T09:38:41,42.805,6.029,CST-1368DR,5405,7513,14914,0.184,551
2021-07-09T09:41:43,42.805,6.029,CST-1368DR,5405,7513,14913,0.184,551
2021-07-09T09:44:45,42.805,6.029,CST-1368DR,5405,7513,14912,0.185,551
2021-07-09T09:47:46,42.805,6.029,CST-1368DR,5405,7513,14913,0.184,551
2021-07-09T09:50:48,42.805,6.029,CST-1368DR,5405,7513,14913,0.184,551
2021-07-09T09:53:49,42.805,6.029,CST-1368DR,5405,7513,14914,0.184,551
2021-07-09T09:56:51,42.805,6.029,CST-1368DR,5405,7513,14914,0.184,550
2021-07-09T09:59:52,42.805,6.029,CST-1368DR,5405,7514,14914,0.184,551
2021-07-09T10:02:54,42.805,6.029,CST-1368DR,5405,7513,14914,0.184,551
2021-07-09T10:05:56,42.805,6.029,CST-1368DR,5405,7513,14913,0.184,550
2021-07-09T10:08:57,42.805,6.029,CST-1368DR,5405,7512,14911,0.185,551
2021-07-09T10:11:59,42.805,6.029,CST-1368DR,5405,7512,14912,0.185,551
2021-07-09T10:15:00,42.805,6.029,CST-1368DR,5405,7513,14912,0.185,551
2021-07-09T10:18:02,42.805,6.029,CST-1368DR,5405,7511,14910,0.185,550
2021-07-09T10:21:04,42.805,6.029,CST-1368DR,5405,7512,14912,0.185,551
2021-07-09T10:24:05,42.805,6.029,CST-1368DR,5405,7513,14913,0.184,551
2021-07-09T10:27:07,42.805,6.029,CST-1368DR,5405,7513,14912,0.185,551
2021-07-09T10:30:08,42.805,6.029,CST-1368DR,5405,7513,14913,0.184,551
2021-07-09T10:33:10,42.805,6.029,CST-1368DR,5405,7512,14912,0.185,551
2021-07-09T10:36:11,42.805,6.029,CST-1368DR,5405,7512,14912,0.185,551
2021-07-09T10:39:13,42.805,6.029,CST-1368DR,5405,7512,14910,0.185,551
2021-07-09T10:42:15,42.805,6.029,CST-1368DR,5405,7512,14910,0.185,551
2021-07-09T10:45:16,42.805,6.029,CST-1368DR,5405,7513,14912,0.185,551
2021-07-09T10:48:18,42.805,6.029,CST-1368DR,5405,7511,14909,0.185,551
2021-07-09T10:51:19,42.805,6.029,CST-1368DR,5405,7513,14913,0.184,551
2021-07-09T10:54:21,42.805,6.029,CST-1368DR,5405,7513,14912,0.185,551
2021-07-09T10:57:22,42.805,6.029,CST-1368DR,5405,7513,14912,0.185,551
2021-07-09T11:00:24,42.805,6.029,CST-1368DR,5405,7512,14912,0.185,551
2021-07-09T11:03:26,42.805,6.029,CST-1368DR,5405,7513,14913,0.184,551
2021-07-09T11:06:27,42.805,6.029,CST-1368DR,5405,7512,14911,0.185,551
2021-07-09T11:09:29,42.805,6.029,CST-1368DR,5405,7512,14910,0.185,551
2021-07-09T11:12:30,42.805,6.029,CST-1368DR,5405,7513,14913,0.184,551
2021-07-09T11:15:32,42.805,6.029,CST-1368DR,5405,7513,14913,0.184,551
2021-07-09T11:18:34,42.805,6.029,CST-1368DR,5405,7511,14910,0.185,551
2021-07-09T11:21:35,42.805,6.029,CST-1368DR,5405,7513,14913,0.184,551
2021-07-09T11:24:37,42.805,6.029,CST-1368DR,5405,7511,14909,0.185,551
2021-07-09T11:27:38,42.805,6.029,CST-1368DR,5405,7512,14911,0.185,551
2021-07-09T11:30:40,42.805,6.029,CST-1368DR,5405,7513,14912,0.185,551
2021-07-09T11:33:41,42.805,6.029,CST-1368DR,5405,7512,14911,0.185,551
2021-07-09T11:36:43,42.805,6.029,CST-1368DR,5405,7512,14910,0.185,551
2021-07-09T11:39:45,42.805,6.029,CST-1368DR,5405,7512,14912,0.185,551
2021-07-09T11:42:46,42.805,6.029,CST-1368DR,5405,7511,14910,0.185,551
2021-07-09T11:45:48,42.805,6.029,CST-1368DR,5405,7512,14911,0.185,551
2021-07-09T11:48:49,42.805,6.029,CST-1368DR,5405,7511,14909,0.185,551
2021-07-09T11:51:51,42.805,6.029,CST-1368DR,5405,7511,14909,0.185,551
2021-07-09T11:54:53,42.805,6.029,CST-1368DR,5405,7511,14910,0.185,551
2021-07-09T11:57:54,42.805,6.029,CST-1368DR,5405,7510,14907,0.186,551
2021-07-09T12:00:56,42.805,6.029,CST-1368DR,5405,7510,14907,0.186,551
2021-07-09T12:03:57,42.805,6.029,CST-1368DR,5405,7512,14911,0.185,551
2021-07-09T12:06:59,42.805,6.029,CST-1368DR,5405,7512,14911,0.185,551
2021-07-09T12:10:00,42.805,6.029,CST-1368DR,5405,7511,14909,0.185,551
2021-07-09T12:13:02,42.805,6.029,CST-1368DR,5405,7510,14907,0.186,551
2021-07-09T12:16:04,42.805,6.029,CST-1368DR,5405,7512,14910,0.185,550
2021-07-09T12:19:05,42.805,6.029,CST-1368DR,5405,7512,14912,0.185,551
2021-07-09T12:22:07,42.805,6.029,CST-1368DR,5405,7511,14909,0.185,551
2021-07-09T12:25:08,42.805,6.029,CST-1368DR,5405,7512,14911,0.185,550
2021-07-09T12:28:10,42.805,6.029,CST-1368DR,5405,7512,14911,0.185,551
2021-07-09T12:31:11,42.805,6.029,CST-1368DR,5405,7512,14912,0.185,551
2021-07-09T12:34:13,42.805,6.029,CST-1368DR,5405,7511,14909,0.185,551
2021-07-09T12:37:15,42.805,6.029,CST-1368DR,5405,7510,14908,0.186,551
2021-07-09T12:40:16,42.805,6.029,CST-1368DR,5405,7512,14911,0.185,551
2021-07-09T12:43:18,42.805,6.029,CST-1368DR,5405,7512,14910,0.185,551
2021-07-09T12:46:19,42.805,6.029,CST-1368DR,5405,7511,14909,0.185,551
2021-07-09T12:49:21,42.805,6.029,CST-1368DR,5405,7512,14911,0.185,551
2021-07-09T12:52:23,42.805,6.029,CST-1368DR,5405,7512,14910,0.185,551
2021-07-09T12:55:24,42.805,6.029,CST-1368DR,5405,7512,14911,0.185,551
2021-07-09T12:58:26,42.805,6.029,CST-1368DR,5405,7512,14911,0.185,551
2021-07-09T13:01:27,42.805,6.029,CST-1368DR,5405,7511,14909,0.185,551
2021-07-09T13:04:29,42.805,6.029,CST-1368DR,5405,7512,14910,0.185,551
2021-07-09T13:07:30,42.805,6.029,CST-1368DR,5405,7511,14909,0.185,551
2021-07-09T13:10:32,42.805,6.029,CST-1368DR,5405,7509,14905,0.186,551
2021-07-09T13:13:34,42.805,6.029,CST-1368DR,5405,7511,14909,0.185,551
2021-07-09T13:16:35,42.805,6.029,CST-1368DR,5405,7512,14911,0.185,551
2021-07-09T13:19:37,42.805,6.029,CST-1368DR,5405,7510,14908,0.186,551
2021-07-09T13:22:38,42.805,6.029,CST-1368DR,5405,7511,14910,0.185,551
2021-07-09T13:25:40,42.805,6.029,CST-1368DR,5405,7511,14910,0.185,551
2021-07-09T13:28:41,42.805,6.029,CST-1368DR,5405,7511,14910,0.185,551
2021-07-09T13:31:43,42.805,6.029,CST-1368DR,5405,7510,14907,0.186,551
2021-07-09T13:34:45,42.805,6.029,CST-1368DR,5405,7511,14909,0.185,551
2021-07-09T13:37:46,42.805,6.029,CST-1368DR,5405,7511,14909,0.185,551
2021-07-09T13:40:48,42.805,6.029,CST-1368DR,5405,7512,14910,0.185,551
2021-07-09T13:43:49,42.805,6.029,CST-1368DR,5405,7511,14909,0.185,551
2021-07-09T13:46:51,42.805,6.029,CST-1368DR,5405,7511,14909,0.185,551
2021-07-09T13:49:53,42.805,6.029,CST-1368DR,5405,7510,14908,0.186,551
2021-07-09T13:52:54,42.805,6.029,CST-1368DR,5405,7511,14909,0.185,551
2021-07-09T13:55:56,42.805,6.029,CST-1368DR,5405,7511,14909,0.185,551
2021-07-09T13:58:57,42.805,6.029,CST-1368DR,5405,7511,14908,0.186,551
2021-07-09T14:01:59,42.805,6.029,CST-1368DR,5405,7511,14909,0.185,551
2021-07-09T14:05:00,42.805,6.029,CST-1368DR,5405,7512,14911,0.185,551
2021-07-09T14:08:02,42.805,6.029,CST-1368DR,5404,7510,14909,0.185,551
2021-07-09T14:11:04,42.805,6.029,CST-1368DR,5405,7511,14910,0.185,551
2021-07-09T14:14:05,42.805,6.029,CST-1368DR,5405,7511,14909,0.185,551
2021-07-09T14:17:07,42.805,6.029,CST-1368DR,5404,7510,14910,0.185,551
2021-07-09T14:20:08,42.805,6.029,CST-1368DR,5405,7511,14909,0.185,551
2021-07-09T14:23:10,42.805,6.029,CST-1368DR,5405,7512,14910,0.185,551
2021-07-09T14:26:11,42.805,6.029,CST-1368DR,5405,7511,14910,0.185,551
2021-07-09T14:29:13,42.805,6.029,CST-1368DR,5405,7510,14908,0.186,551
2021-07-09T14:32:15,42.805,6.029,CST-1368DR,5405,7511,14909,0.185,551
2021-07-09T14:35:16,42.805,6.029,CST-1368DR,5405,7510,14908,0.186,551
2021-07-09T14:38:18,42.805,6.029,CST-1368DR,5404,7511,14911,0.185,551
2021-07-09T14:41:19,42.805,6.029,CST-1368DR,5405,7511,14910,0.185,551
2021-07-09T14:44:21,42.805,6.029,CST-1368DR,5404,7511,14911,0.185,551
2021-07-09T14:47:23,42.805,6.029,CST-1368DR,5404,7511,14911,0.185,551
2021-07-09T14:50:24,42.805,6.029,CST-1368DR,5404,7511,14912,0.185,551
2021-07-09T14:53:26,42.805,6.029,CST-1368DR,5404,7510,14910,0.185,551
2021-07-09T14:56:27,42.805,6.029,CST-1368DR,5405,7511,14909,0.185,551
2021-07-09T14:59:29,42.805,6.029,CST-1368DR,5404,7509,14908,0.186,551
2021-07-09T15:02:30,42.805,6.029,CST-1368DR,5404,7512,14913,0.184,551
2021-07-09T15:05:32,42.805,6.029,CST-1368DR,5404,7511,14912,0.185,551
2021-07-09T15:08:34,42.805,6.029,CST-1368DR,5404,7511,14911,0.185,551
2021-07-09T15:11:35,42.805,6.029,CST-1368DR,5405,7511,14909,0.185,551
2021-07-09T15:14:37,42.805,6.029,CST-1368DR,5405,7511,14909,0.185,551
2021-07-09T15:17:38,42.805,6.029,CST-1368DR,5405,7511,14909,0.185,551
2021-07-09T15:20:40,42.805,6.029,CST-1368DR,5404,7511,14911,0.185,551
2021-07-09T15:23:42,42.805,6.029,CST-1368DR,5405,7511,14908,0.186,551
2021-07-09T15:26:43,42.805,6.029,CST-1368DR,5404,7510,14910,0.185,551
2021-07-09T15:29:45,42.805,6.029,CST-1368DR,5404,7509,14908,0.186,551
2021-07-09T15:32:46,42.805,6.029,CST-1368DR,5404,7511,14911,0.185,551
2021-07-09T15:35:48,42.805,6.029,CST-1368DR,5404,7510,14910,0.185,551
2021-07-09T15:38:49,42.805,6.029,CST-1368DR,5404,7511,14911,0.185,551
2021-07-09T15:41:51,42.805,6.029,CST-1368DR,5404,7511,14911,0.185,550
2021-07-09T15:44:53,42.805,6.029,CST-1368DR,5404,7510,14909,0.185,551
2021-07-09T15:47:54,42.805,6.029,CST-1368DR,5404,7510,14909,0.185,551
2021-07-09T15:50:56,42.805,6.029,CST-1368DR,5404,7511,14911,0.185,551
2021-07-09T15:53:57,42.805,6.029,CST-1368DR,5404,7511,14911,0.185,551
2021-07-09T15:56:59,42.805,6.029,CST-1368DR,5404,7510,14909,0.185,551
2021-07-09T16:00:00,42.805,6.029,CST-1368DR,5404,7510,14910,0.185,551
2021-07-09T16:03:02,42.805,6.029,CST-1368DR,5404,7510,14910,0.185,551
2021-07-09T16:06:04,42.805,6.029,CST-1368DR,5404,7510,14910,0.185,551
2021-07-09T16:09:05,42.805,6.029,CST-1368DR,5404,7510,14909,0.185,551
2021-07-09T16:12:07,42.805,6.029,CST-1368DR,5404,7510,14909,0.185,551
2021-07-09T16:15:08,42.805,6.029,CST-1368DR,5404,7510,14910,0.185,551
2021-07-09T16:18:10,42.805,6.029,CST-1368DR,5404,7510,14910,0.185,551
2021-07-09T16:21:12,42.805,6.029,CST-1368DR,5404,7509,14908,0.186,551
2021-07-09T16:24:13,42.805,6.029,CST-1368DR,5404,7509,14908,0.186,551
2021-07-09T16:27:15,42.805,6.029,CST-1368DR,5404,7511,14911,0.185,551
2021-07-09T16:30:16,42.805,6.029,CST-1368DR,5404,7510,14910,0.185,551
2021-07-09T16:33:18,42.805,6.029,CST-1368DR,5404,7510,14909,0.185,551
2021-07-09T16:36:19,42.805,6.029,CST-1368DR,5404,7509,14908,0.186,551
2021-07-09T16:39:21,42.805,6.029,CST-1368DR,5404,7503,14895,0.189,551
2021-07-09T16:42:23,42.805,6.029,CST-1368DR,5404,7508,14906,0.186,551
2021-07-09T16:45:24,42.805,6.029,CST-1368DR,5404,7510,14910,0.185,551
2021-07-09T16:48:26,42.805,6.029,CST-1368DR,5404,7510,14909,0.185,551
2021-07-09T16:51:27,42.805,6.029,CST-1368DR,5404,7509,14907,0.186,551